Location: Burbank
(38.7788°N, 114.0429°W)
Time: 22:53:26
(UTC+00:00)

S-56A Canister/Altair - Pass Details

Date: 17 May 2026
Orbit: 633 x 2484 km, 38.9° (Epoch: 1 June)

Event Time Altitude Azimuth Distance (km) Brightness Sun altitude
Rises 03:08:26 0° 237° (WSW) 3,328 11.2 -5.3°
Reaches altitude 10° 03:11:11 10° 231° (SW) 2,230 10.2 -5.7°
Maximum altitude 03:15:52 46° 159° (SSE) 871 7.5 -6.5°
Drops below altitude 10° 03:20:06 10° 85° (E) 2,011 9.2 -7.2°
Enters shadow 03:22:11 - 80° (E) 2,847 10.0 -7.5°
Sets 03:22:28 0° 79° (E) 2,962 - -7.6°
